Вернуться в каталог

COSMOS 2251 DEB

АктивенLEO
NORAD 37537·DEBRIS·🇷🇺 Russia

Запущен Jun 16, 1993 с Plesetsk Cosmodrome

Loading…

Ближайшие Пролёты (ближайшие 24 часа)

TLE

СвежийSource: Space-Track

Эпоха: Sep 14, 2026, 08:22 UTC

1 37537U 93036BNS 26257.34929204  .00000292  00000-0  10417-3 0  9990
2 37537  74.0107 117.0354 0051628 193.4810 166.4968 14.37778587889940

Отслеживайте COSMOS 2251 DEB в реальном времени с AllMySat

Download on the App Store